"read_dt","SO2 (ppb)","flags","PMT voltage (V)","lamp voltage (V)","lamp intensity (Hz)","internal temp (C)","react chamber temp (C)","sample flow (l/min)","pres (mmHg)","SO2 bkg (ppb)","SO2 coefficient"
2017-04-11 00:00:00,1577E-3,5C000400,-0724,0836,12081,029.6,045.5,0.218,758.5,01.16,0.508
2017-04-11 00:01:00,1617E-3,5C000400,-0724,0837,12115,029.6,045.5,0.218,758.5,01.16,0.508
2017-04-11 00:02:00,1704E-3,5C000400,-0724,0836,12091,029.6,045.5,0.218,758.5,01.16,0.508
2017-04-11 00:03:00,1615E-3,5C000400,-0724,0835,11864,029.6,045.5,0.218,758.5,01.16,0.508
2017-04-11 00:04:00,1677E-3,5C000400,-0724,0837,11982,029.6,045.5,0.218,758.5,01.16,0.508
2017-04-11 00:05:00,1651E-3,5C000400,-0724,0836,12116,029.6,045.5,0.218,758.5,01.16,0.508
2017-04-11 00:06:00,1543E-3,5C000400,-0724,0836,12053,029.6,045.5,0.218,758.5,01.16,0.508
2017-04-11 00:07:00,1610E-3,5C000400,-0724,0836,12113,029.6,045.5,0.218,758.5,01.16,0.508
2017-04-11 00:08:00,1550E-3,5C000400,-0724,0836,12030,029.6,045.5,0.218,758.5,01.16,0.508
2017-04-11 00:09:00,1602E-3,5C000400,-0724,0835,11998,029.6,045.5,0.218,758.5,01.16,0.508
2017-04-11 00:10:00,1575E-3,5C000400,-0724,0835,12231,029.6,045.5,0.218,758.5,01.16,0.508
2017-04-11 00:11:00,1494E-3,5C000400,-0724,0836,12045,029.6,045.5,0.218,758.5,01.16,0.508
2017-04-11 00:12:00,1671E-3,5C000400,-0724,0836,11997,029.6,045.5,0.218,758.5,01.16,0.508
2017-04-11 00:13:00,1697E-3,5C000400,-0724,0835,12138,029.7,045.5,0.218,758.5,01.16,0.508
2017-04-11 00:14:00,1630E-3,5C000400,-0724,0836,11997,029.6,045.5,0.218,758.6,01.16,0.508
2017-04-11 00:15:00,1687E-3,5C000400,-0724,0836,11997,029.6,045.5,0.218,758.6,01.16,0.508
2017-04-11 00:16:00,1641E-3,5C000400,-0724,0836,11995,029.7,045.5,0.218,758.5,01.16,0.508
2017-04-11 00:17:00,1682E-3,5C000400,-0724,0836,12066,029.6,045.5,0.218,758.5,01.16,0.508
2017-04-11 00:18:00,1671E-3,5C000400,-0724,0836,12034,029.7,045.5,0.218,758.6,01.16,0.508
2017-04-11 00:19:00,1603E-3,5C000400,-0724,0835,12158,029.7,045.5,0.218,758.5,01.16,0.508
2017-04-11 00:20:00,1679E-3,5C000400,-0724,0836,11939,029.7,045.5,0.218,758.6,01.16,0.508
2017-04-11 00:21:00,1636E-3,5C000400,-0724,0836,12035,029.7,045.5,0.218,758.6,01.16,0.508
2017-04-11 00:22:00,1659E-3,5C000400,-0724,0836,11962,029.7,045.5,0.218,758.6,01.16,0.508
2017-04-11 00:23:00,1714E-3,5C000400,-0724,0836,11960,029.7,045.5,0.218,758.6,01.16,0.508
2017-04-11 00:24:00,1521E-3,5C000400,-0724,0835,12045,029.7,045.5,0.218,758.6,01.16,0.508
2017-04-11 00:25:00,1627E-3,5C000400,-0724,0836,12042,029.7,045.5,0.218,758.6,01.16,0.508
2017-04-11 00:26:00,1583E-3,5C000400,-0724,0836,12095,029.7,045.5,0.218,758.6,01.16,0.508
2017-04-11 00:27:00,1561E-3,5C000400,-0724,0836,12076,029.7,045.5,0.218,758.6,01.16,0.508
2017-04-11 00:28:00,1672E-3,5C000400,-0724,0836,12188,029.7,045.5,0.218,758.6,01.16,0.508
2017-04-11 00:29:00,1677E-3,5C000400,-0724,0836,11940,029.7,045.5,0.218,758.6,01.16,0.508
2017-04-11 00:30:00,1653E-3,5C000400,-0724,0835,12169,029.7,045.5,0.218,758.6,01.16,0.508
2017-04-11 00:31:00,1716E-3,5C000400,-0724,0836,12022,029.7,045.5,0.218,758.6,01.16,0.508
2017-04-11 00:32:00,1895E-3,5C000400,-0724,0836,12071,029.8,045.5,0.218,758.6,01.16,0.508
2017-04-11 00:33:00,1667E-3,5C000400,-0724,0836,12071,029.8,045.5,0.218,758.6,01.16,0.508
2017-04-11 00:34:00,1861E-3,5C000400,-0724,0836,12213,029.7,045.5,0.218,758.6,01.16,0.508
2017-04-11 00:35:00,1703E-3,5C000400,-0724,0836,12154,029.8,045.5,0.218,758.5,01.16,0.508
2017-04-11 00:36:00,1665E-3,5C000400,-0724,0836,12093,029.8,045.5,0.217,758.5,01.16,0.508
2017-04-11 00:37:00,1572E-3,5C000400,-0724,0836,12114,029.8,045.5,0.217,758.5,01.16,0.508
2017-04-11 00:38:00,1550E-3,5C000400,-0724,0836,12106,029.8,045.5,0.217,758.6,01.16,0.508
2017-04-11 00:39:00,1547E-3,5C000400,-0724,0837,12039,029.8,045.5,0.218,758.6,01.16,0.508
2017-04-11 00:40:00,1628E-3,5C000400,-0724,0836,11876,029.8,045.5,0.218,758.6,01.16,0.508
2017-04-11 00:41:00,1630E-3,5C000400,-0724,0836,12135,029.8,045.5,0.218,758.6,01.16,0.508
2017-04-11 00:42:00,1561E-3,5C000400,-0724,0836,12064,029.8,045.5,0.218,758.6,01.16,0.508
2017-04-11 00:43:00,1543E-3,5C000400,-0724,0836,12078,029.8,045.5,0.218,758.6,01.16,0.508
2017-04-11 00:44:00,1705E-3,5C000400,-0724,0836,12125,029.8,045.5,0.218,758.6,01.16,0.508
2017-04-11 00:45:00,1524E-3,5C000400,-0724,0836,12055,029.8,045.5,0.218,758.6,01.16,0.508
2017-04-11 00:46:00,1645E-3,5C000400,-0724,0836,12051,029.8,045.5,0.218,758.6,01.16,0.508
2017-04-11 00:47:00,1710E-3,5C000400,-0724,0836,12043,029.9,045.5,0.218,758.6,01.16,0.508
2017-04-11 00:48:00,1613E-3,5C000400,-0724,0836,12125,029.9,045.5,0.218,758.6,01.16,0.508
2017-04-11 00:49:00,1620E-3,5C000400,-0724,0835,12070,029.9,045.5,0.218,758.5,01.16,0.508
2017-04-11 00:50:00,1684E-3,5C000400,-0724,0836,12093,029.9,045.5,0.218,758.5,01.16,0.508
2017-04-11 00:51:00,1617E-3,5C000400,-0724,0836,12138,029.9,045.5,0.218,758.5,01.16,0.508
2017-04-11 00:52:00,1553E-3,5C000400,-0724,0836,12044,029.9,045.5,0.218,758.5,01.16,0.508
2017-04-11 00:53:00,1646E-3,5C000400,-0724,0836,12011,029.9,045.5,0.218,758.5,01.16,0.508
2017-04-11 00:54:00,1722E-3,5C000400,-0724,0836,12107,029.9,045.5,0.218,758.4,01.16,0.508
2017-04-11 00:55:00,1626E-3,5C000400,-0724,0837,12028,029.9,045.5,0.218,758.5,01.16,0.508
2017-04-11 00:56:00,1479E-3,5C000400,-0724,0836,12104,029.9,045.5,0.218,758.5,01.16,0.508
2017-04-11 00:57:00,1689E-3,5C000400,-0724,0836,12130,029.9,045.5,0.218,758.5,01.16,0.508
2017-04-11 00:58:00,1751E-3,5C000400,-0724,0836,12077,029.9,045.5,0.217,758.5,01.16,0.508
2017-04-11 00:59:00,1638E-3,5C000400,-0724,0836,12029,029.9,045.5,0.218,758.5,01.16,0.508
2017-04-11 01:00:00,1687E-3,5C000400,-0724,0836,12118,030.0,045.5,0.217,758.5,01.16,0.508
2017-04-11 01:01:00,1592E-3,5C000400,-0724,0836,11968,029.9,045.5,0.217,758.5,01.16,0.508
2017-04-11 01:02:00,1602E-3,5C000400,-0724,0835,12032,030.0,045.5,0.217,758.5,01.16,0.508
2017-04-11 01:03:00,1589E-3,5C000400,-0724,0836,12040,030.0,045.5,0.217,758.5,01.16,0.508
2017-04-11 01:04:00,1652E-3,5C000400,-0724,0836,12051,030.0,045.5,0.217,758.4,01.16,0.508
2017-04-11 01:05:00,1642E-3,5C000400,-0724,0836,12065,030.0,045.5,0.217,758.5,01.16,0.508
2017-04-11 01:06:00,1563E-3,5C000400,-0724,0836,12133,030.0,045.5,0.217,758.5,01.16,0.508
2017-04-11 01:07:00,1592E-3,5C000400,-0724,0835,12057,030.0,045.5,0.217,758.5,01.16,0.508
2017-04-11 01:08:00,1491E-3,5C000400,-0724,0836,11943,030.0,045.5,0.217,758.4,01.16,0.508
2017-04-11 01:09:00,1602E-3,5C000400,-0724,0837,11928,030.0,045.5,0.217,758.4,01.16,0.508
2017-04-11 01:10:00,1492E-3,5C000400,-0724,0836,11928,030.0,045.5,0.217,758.4,01.16,0.508
2017-04-11 01:11:00,1569E-3,5C000400,-0724,0836,12113,030.0,045.5,0.217,758.4,01.16,0.508
2017-04-11 01:12:00,1573E-3,5C000400,-0724,0836,12067,030.1,045.5,0.217,758.4,01.16,0.508
2017-04-11 01:13:00,1621E-3,5C000400,-0724,0837,12121,030.1,045.5,0.217,758.4,01.16,0.508
2017-04-11 01:14:00,1719E-3,5C000400,-0724,0836,12083,030.1,045.5,0.217,758.4,01.16,0.508
2017-04-11 01:15:00,1643E-3,5C000400,-0724,0836,12121,030.1,045.5,0.217,758.4,01.16,0.508
2017-04-11 01:16:00,1550E-3,5C000400,-0724,0836,11996,030.1,045.5,0.217,758.4,01.16,0.508
2017-04-11 01:17:00,1684E-3,5C000400,-0724,0836,11894,030.1,045.5,0.217,758.4,01.16,0.508
2017-04-11 01:18:00,1679E-3,5C000400,-0724,0836,12036,030.1,045.5,0.217,758.4,01.16,0.508
2017-04-11 01:19:00,1421E-3,5C000400,-0724,0836,12200,030.1,045.5,0.217,758.4,01.16,0.508
2017-04-11 01:20:00,1579E-3,5C000400,-0724,0836,12141,030.1,045.5,0.217,758.4,01.16,0.508
2017-04-11 01:21:00,1600E-3,5C000400,-0724,0836,12005,030.1,045.5,0.217,758.4,01.16,0.508
2017-04-11 01:22:00,1599E-3,5C000400,-0724,0836,12071,030.2,045.5,0.217,758.4,01.16,0.508
2017-04-11 01:23:00,1652E-3,5C000400,-0724,0836,12104,030.2,045.5,0.217,758.4,01.16,0.508
2017-04-11 01:24:00,1635E-3,5C000400,-0724,0836,11950,030.2,045.5,0.217,758.4,01.16,0.508
2017-04-11 01:25:00,1735E-3,5C000400,-0724,0836,12047,030.2,045.5,0.217,758.4,01.16,0.508
2017-04-11 01:26:00,1710E-3,5C000400,-0724,0835,11886,030.2,045.5,0.217,758.4,01.16,0.508
2017-04-11 01:27:00,1617E-3,5C000400,-0724,0836,11989,030.2,045.5,0.217,758.4,01.16,0.508
2017-04-11 01:28:00,1639E-3,5C000400,-0724,0835,12140,030.2,045.5,0.217,758.4,01.16,0.508
2017-04-11 01:29:00,1694E-3,5C000400,-0724,0836,12096,030.2,045.5,0.217,758.4,01.16,0.508
2017-04-11 01:30:00,1625E-3,5C000400,-0724,0835,12087,030.2,045.5,0.216,758.4,01.16,0.508
2017-04-11 01:31:00,1580E-3,5C000400,-0724,0836,11940,030.2,045.5,0.216,758.4,01.16,0.508
2017-04-11 01:32:00,1655E-3,5C000400,-0724,0835,11909,030.2,045.5,0.216,758.4,01.16,0.508
2017-04-11 01:33:00,1666E-3,5C000400,-0724,0836,12046,030.3,045.5,0.216,758.4,01.16,0.508
2017-04-11 01:34:00,1601E-3,5C000400,-0724,0835,12106,030.3,045.5,0.216,758.4,01.16,0.508
2017-04-11 01:35:00,1589E-3,5C000400,-0724,0835,12066,030.3,045.5,0.217,758.4,01.16,0.508
2017-04-11 01:36:00,1552E-3,5C000400,-0724,0835,12043,030.3,045.5,0.217,758.4,01.16,0.508
2017-04-11 01:37:00,1508E-3,5C000400,-0724,0835,12088,030.3,045.5,0.217,758.4,01.16,0.508
2017-04-11 01:38:00,1659E-3,5C000400,-0724,0837,11994,030.3,045.5,0.217,758.4,01.16,0.508
2017-04-11 01:39:00,1636E-3,5C000400,-0724,0836,12128,030.3,045.5,0.217,758.4,01.16,0.508
2017-04-11 01:40:00,1673E-3,5C000400,-0724,0835,12016,030.3,045.5,0.217,758.4,01.16,0.508
2017-04-11 01:41:00,1610E-3,5C000400,-0724,0836,12044,030.3,045.5,0.217,758.3,01.16,0.508
2017-04-11 01:42:00,1761E-3,5C000400,-0724,0836,12041,030.3,045.5,0.217,758.3,01.16,0.508
2017-04-11 01:43:00,1642E-3,5C000400,-0724,0836,12137,030.3,045.5,0.217,758.3,01.16,0.508
2017-04-11 01:44:00,1552E-3,5C000400,-0724,0835,12093,030.3,045.5,0.217,758.3,01.16,0.508
2017-04-11 01:45:00,1470E-3,5C000400,-0724,0836,12106,030.4,045.5,0.217,758.3,01.16,0.508
2017-04-11 01:46:00,1670E-3,5C000400,-0724,0836,12037,030.4,045.5,0.217,758.3,01.16,0.508
2017-04-11 01:47:00,1580E-3,5C000400,-0724,0836,12125,030.4,045.5,0.217,758.3,01.16,0.508
2017-04-11 01:48:00,1652E-3,5C000400,-0724,0837,12105,030.4,045.5,0.217,758.3,01.16,0.508
2017-04-11 01:49:00,1664E-3,5C000400,-0724,0836,12232,030.4,045.5,0.217,758.3,01.16,0.508
2017-04-11 01:50:00,1592E-3,5C000400,-0724,0836,12076,030.4,045.5,0.217,758.3,01.16,0.508
2017-04-11 01:51:00,1529E-3,5C000400,-0724,0836,12071,030.4,045.5,0.216,758.3,01.16,0.508
2017-04-11 01:52:00,1587E-3,5C000400,-0724,0836,12217,030.5,045.5,0.216,758.3,01.16,0.508
2017-04-11 01:53:00,1613E-3,5C000400,-0724,0836,11987,030.5,045.5,0.216,758.2,01.16,0.508
2017-04-11 01:54:00,1587E-3,5C000400,-0724,0836,12128,030.5,045.5,0.216,758.2,01.16,0.508
2017-04-11 01:55:00,1661E-3,5C000400,-0724,0836,12269,030.5,045.5,0.217,758.2,01.16,0.508
2017-04-11 01:56:00,1669E-3,5C000400,-0724,0836,11921,030.5,045.5,0.216,758.3,01.16,0.508
2017-04-11 01:57:00,1663E-3,5C000400,-0724,0836,11989,030.5,045.5,0.216,758.3,01.16,0.508
2017-04-11 01:58:00,1669E-3,5C000400,-0724,0836,12037,030.5,045.5,0.216,758.3,01.16,0.508
2017-04-11 01:59:00,1534E-3,5C000400,-0724,0835,12176,030.5,045.5,0.216,758.3,01.16,0.508
2017-04-11 02:00:00,1652E-3,5C000400,-0724,0836,12156,030.5,045.5,0.216,758.2,01.16,0.508
2017-04-11 02:01:00,1584E-3,5C000400,-0724,0836,12035,030.5,045.5,0.216,758.2,01.16,0.508
2017-04-11 02:02:00,1682E-3,5C000400,-0724,0836,12162,030.6,045.5,0.216,758.2,01.16,0.508
2017-04-11 02:03:00,1555E-3,5C000400,-0724,0836,12130,030.5,045.5,0.216,758.2,01.16,0.508
2017-04-11 02:04:00,1588E-3,5C000400,-0724,0837,12156,030.6,045.5,0.216,758.2,01.16,0.508
2017-04-11 02:05:00,1673E-3,5C000400,-0724,0836,12182,030.6,045.5,0.216,758.2,01.16,0.508
2017-04-11 02:06:00,1566E-3,5C000400,-0724,0836,12018,030.6,045.5,0.216,758.2,01.16,0.508
2017-04-11 02:07:00,1671E-3,5C000400,-0724,0836,12176,030.6,045.5,0.216,758.2,01.16,0.508
2017-04-11 02:08:00,1595E-3,5C000400,-0724,0836,12104,030.6,045.5,0.216,758.2,01.16,0.508
2017-04-11 02:09:00,1593E-3,5C000400,-0724,0836,12057,030.6,045.5,0.216,758.2,01.16,0.508
2017-04-11 02:10:00,1600E-3,5C000400,-0724,0835,11990,030.6,045.5,0.216,758.2,01.16,0.508
2017-04-11 02:11:00,1647E-3,5C000400,-0724,0837,12049,030.6,045.5,0.216,758.2,01.16,0.508
2017-04-11 02:12:00,1650E-3,5C000400,-0724,0836,12043,030.6,045.5,0.216,758.2,01.16,0.508
2017-04-11 02:13:00,1625E-3,5C000400,-0724,0836,11951,030.7,045.5,0.216,758.2,01.16,0.508
2017-04-11 02:14:00,1629E-3,5C000400,-0724,0837,12129,030.6,045.5,0.216,758.2,01.16,0.508
2017-04-11 02:15:00,1567E-3,5C000400,-0724,0836,11937,030.7,045.5,0.216,758.2,01.16,0.508
2017-04-11 02:16:00,1650E-3,5C000400,-0724,0836,12182,030.7,045.5,0.216,758.2,01.16,0.508
2017-04-11 02:17:00,1633E-3,5C000400,-0724,0836,11979,030.7,045.5,0.216,758.2,01.16,0.508
2017-04-11 02:18:00,1616E-3,5C000400,-0724,0836,11888,030.7,045.5,0.215,758.2,01.16,0.508
2017-04-11 02:19:00,1607E-3,5C000400,-0724,0836,12148,030.7,045.5,0.215,758.2,01.16,0.508
2017-04-11 02:20:00,1629E-3,5C000400,-0724,0837,12154,030.7,045.5,0.216,758.2,01.16,0.508
2017-04-11 02:21:00,1803E-3,5C000400,-0724,0836,12027,030.7,045.5,0.216,758.2,01.16,0.508
2017-04-11 02:22:00,1646E-3,5C000400,-0724,0836,12106,030.7,045.5,0.216,758.2,01.16,0.508
2017-04-11 02:23:00,1627E-3,5C000400,-0724,0836,12112,030.8,045.5,0.216,758.1,01.16,0.508
2017-04-11 02:24:00,1697E-3,5C000400,-0724,0836,12052,030.8,045.5,0.216,758.2,01.16,0.508
2017-04-11 02:25:00,1534E-3,5C000400,-0724,0836,12196,030.8,045.5,0.216,758.1,01.16,0.508
2017-04-11 02:26:00,1611E-3,5C000400,-0724,0836,12152,030.8,045.5,0.216,758.1,01.16,0.508
2017-04-11 02:27:00,1707E-3,5C000400,-0724,0836,12157,030.8,045.5,0.215,758.1,01.16,0.508
2017-04-11 02:28:00,1653E-3,5C000400,-0724,0836,12217,030.8,045.5,0.215,758.1,01.16,0.508
2017-04-11 02:29:00,1603E-3,5C000400,-0724,0836,12182,030.8,045.5,0.215,758.1,01.16,0.508
2017-04-11 02:30:00,1577E-3,5C000400,-0724,0835,12096,030.8,045.5,0.215,758.0,01.16,0.508
2017-04-11 02:31:00,1664E-3,5C000400,-0724,0837,12171,030.8,045.5,0.216,758.0,01.16,0.508
2017-04-11 02:32:00,1728E-3,5C000400,-0724,0836,12084,030.8,045.5,0.216,758.0,01.16,0.508
2017-04-11 02:33:00,1616E-3,5C000400,-0724,0836,12043,030.9,045.5,0.215,758.0,01.16,0.508
2017-04-11 02:34:00,1684E-3,5C000400,-0724,0837,12082,030.9,045.5,0.215,758.0,01.16,0.508
2017-04-11 02:35:00,1694E-3,5C000400,-0724,0837,12066,030.9,045.5,0.215,758.0,01.16,0.508
2017-04-11 02:36:00,1826E-3,5C000400,-0724,0836,11975,030.9,045.5,0.215,758.0,01.16,0.508
2017-04-11 02:37:00,1609E-3,5C000400,-0724,0836,12039,030.9,045.5,0.215,758.0,01.16,0.508
2017-04-11 02:38:00,1556E-3,5C000400,-0724,0836,12045,030.9,045.5,0.215,758.0,01.16,0.508
2017-04-11 02:39:00,1589E-3,5C000400,-0724,0836,12027,030.9,045.5,0.215,758.0,01.16,0.508
2017-04-11 02:40:00,1704E-3,5C000400,-0724,0836,12085,030.9,045.5,0.215,757.9,01.16,0.508
2017-04-11 02:41:00,1560E-3,5C000400,-0724,0836,12120,031.0,045.5,0.215,758.0,01.16,0.508
2017-04-11 02:42:00,1652E-3,5C000400,-0724,0836,12117,031.0,045.5,0.215,758.0,01.16,0.508
2017-04-11 02:43:00,1560E-3,5C000400,-0724,0837,12214,031.0,045.5,0.215,758.0,01.16,0.508
2017-04-11 02:44:00,1645E-3,5C000400,-0724,0836,12131,031.0,045.5,0.215,757.9,01.16,0.508
2017-04-11 02:45:00,1687E-3,5C000400,-0724,0836,12122,031.0,045.5,0.215,757.9,01.16,0.508
2017-04-11 02:46:00,1668E-3,5C000400,-0724,0836,12106,031.0,045.5,0.215,757.9,01.16,0.508
2017-04-11 02:47:00,1654E-3,5C000400,-0724,0836,12078,031.0,045.5,0.215,758.0,01.16,0.508
2017-04-11 02:48:00,1602E-3,5C000400,-0724,0836,12103,031.0,045.5,0.215,757.9,01.16,0.508
2017-04-11 02:49:00,1600E-3,5C000400,-0724,0836,12144,031.0,045.5,0.215,757.9,01.16,0.508
2017-04-11 02:50:00,1590E-3,5C000400,-0724,0836,12094,031.0,045.5,0.215,757.9,01.16,0.508
2017-04-11 02:51:00,1614E-3,5C000400,-0724,0837,12086,031.1,045.5,0.215,757.9,01.16,0.508
2017-04-11 02:52:00,1670E-3,5C000400,-0724,0836,12154,031.0,045.5,0.215,757.9,01.16,0.508
2017-04-11 02:53:00,1566E-3,5C000400,-0724,0836,12088,031.1,045.6,0.215,757.9,01.16,0.508
2017-04-11 02:54:00,1690E-3,5C000400,-0724,0836,12070,031.1,045.6,0.215,757.8,01.16,0.508
2017-04-11 02:55:00,1580E-3,5C000400,-0724,0836,12065,031.1,045.5,0.215,757.8,01.16,0.508
2017-04-11 02:56:00,1693E-3,5C000400,-0724,0836,12019,031.1,045.5,0.215,757.8,01.16,0.508
2017-04-11 02:57:00,1507E-3,5C000400,-0724,0837,12100,031.1,045.5,0.215,757.8,01.16,0.508
2017-04-11 02:58:00,1583E-3,5C000400,-0724,0836,12037,031.1,045.6,0.215,757.8,01.16,0.508
2017-04-11 02:59:00,1606E-3,5C000400,-0724,0836,12067,031.1,045.5,0.215,757.8,01.16,0.508
2017-04-11 03:00:00,1652E-3,5C000400,-0724,0836,12092,031.2,045.5,0.215,757.8,01.16,0.508
2017-04-11 03:01:00,1555E-3,5C000400,-0724,0836,11924,031.2,045.5,0.215,757.8,01.16,0.508
2017-04-11 03:02:00,1629E-3,5C000400,-0724,0837,12142,031.2,045.5,0.215,757.8,01.16,0.508
2017-04-11 03:03:00,1546E-3,5C000400,-0724,0836,12047,031.2,045.5,0.215,757.9,01.16,0.508
2017-04-11 03:04:00,1573E-3,5C000400,-0724,0836,12093,031.2,045.5,0.215,757.9,01.16,0.508
2017-04-11 03:05:00,1668E-3,5C000400,-0724,0836,12040,031.2,045.5,0.214,757.8,01.16,0.508
2017-04-11 03:06:00,1572E-3,5C000400,-0724,0837,12178,031.2,045.5,0.215,757.8,01.16,0.508
2017-04-11 03:07:00,1627E-3,5C000400,-0724,0835,12078,031.2,045.5,0.215,757.8,01.16,0.508
2017-04-11 03:08:00,1724E-3,5C000400,-0724,0836,12197,031.2,045.5,0.215,757.9,01.16,0.508
2017-04-11 03:09:00,1674E-3,5C000400,-0724,0836,12071,031.2,045.5,0.215,757.8,01.16,0.508
2017-04-11 03:10:00,1671E-3,5C000400,-0724,0837,12198,031.2,045.5,0.214,757.8,01.16,0.508
2017-04-11 03:11:00,1635E-3,5C000400,-0724,0837,12055,031.2,045.6,0.214,757.8,01.16,0.508
2017-04-11 03:12:00,1623E-3,5C000400,-0724,0836,12105,031.2,045.6,0.215,757.8,01.16,0.508
2017-04-11 03:13:00,1519E-3,5C000400,-0724,0836,12094,031.2,045.5,0.215,757.8,01.16,0.508
2017-04-11 03:14:00,1669E-3,5C000400,-0724,0836,12142,031.3,045.6,0.215,757.8,01.16,0.508
2017-04-11 03:15:00,1655E-3,5C000400,-0724,0837,12042,031.3,045.5,0.214,757.8,01.16,0.508
2017-04-11 03:16:00,1489E-3,5C000400,-0724,0836,12167,031.3,045.5,0.214,757.8,01.16,0.508
2017-04-11 03:17:00,1674E-3,5C000400,-0724,0837,12166,031.3,045.5,0.214,757.8,01.16,0.508
2017-04-11 03:18:00,1583E-3,5C000400,-0724,0836,12015,031.3,045.5,0.215,757.8,01.16,0.508
2017-04-11 03:19:00,1680E-3,5C000400,-0724,0837,12303,031.3,045.5,0.215,757.8,01.16,0.508
2017-04-11 03:20:00,1632E-3,5C000400,-0724,0836,12055,031.3,045.6,0.214,757.8,01.16,0.508
2017-04-11 03:21:00,1622E-3,5C000400,-0724,0837,12063,031.3,045.6,0.214,757.8,01.16,0.508
2017-04-11 03:22:00,1533E-3,5C000400,-0724,0836,12080,031.3,045.6,0.214,757.7,01.16,0.508
2017-04-11 03:23:00,1573E-3,5C000400,-0724,0837,12052,031.3,045.5,0.215,757.7,01.16,0.508
2017-04-11 03:24:00,1730E-3,5C000400,-0724,0836,11975,031.3,045.6,0.215,757.8,01.16,0.508
2017-04-11 03:25:00,1554E-3,5C000400,-0724,0836,11999,031.4,045.6,0.214,757.7,01.16,0.508
2017-04-11 03:26:00,1645E-3,5C000400,-0724,0836,12178,031.4,045.6,0.214,757.7,01.16,0.508
2017-04-11 03:27:00,1582E-3,5C000400,-0724,0836,12106,031.4,045.6,0.214,757.7,01.16,0.508
2017-04-11 03:28:00,1624E-3,5C000400,-0724,0836,12146,031.3,045.6,0.215,757.7,01.16,0.508
2017-04-11 03:29:00,1627E-3,5C000400,-0724,0837,12077,031.4,045.6,0.214,757.7,01.16,0.508
2017-04-11 03:30:00,1620E-3,5C000400,-0724,0837,12030,031.4,045.6,0.214,757.6,01.16,0.508
2017-04-11 03:31:00,1615E-3,5C000400,-0724,0837,12051,031.4,045.6,0.214,757.7,01.16,0.508
2017-04-11 03:32:00,1664E-3,5C000400,-0724,0837,12014,031.4,045.6,0.214,757.6,01.16,0.508
2017-04-11 03:33:00,1650E-3,5C000400,-0724,0836,12034,031.4,045.5,0.215,757.7,01.16,0.508
2017-04-11 03:34:00,1470E-3,5C000400,-0724,0837,12085,031.4,045.6,0.214,757.6,01.16,0.508
2017-04-11 03:35:00,1637E-3,5C000400,-0724,0836,11904,031.4,045.6,0.214,757.6,01.16,0.508
2017-04-11 03:36:00,1518E-3,5C000400,-0724,0837,12167,031.4,045.6,0.214,757.6,01.16,0.508
2017-04-11 03:37:00,1589E-3,5C000400,-0724,0837,12091,031.4,045.6,0.214,757.6,01.16,0.508
2017-04-11 03:38:00,1693E-3,5C000400,-0724,0837,12038,031.5,045.6,0.214,757.6,01.16,0.508
2017-04-11 03:39:00,1700E-3,5C000400,-0724,0837,12088,031.4,045.6,0.214,757.5,01.16,0.508
2017-04-11 03:40:00,1571E-3,5C000400,-0724,0836,11989,031.5,045.6,0.214,757.5,01.16,0.508
2017-04-11 03:41:00,1566E-3,5C000400,-0724,0836,12009,031.5,045.6,0.214,757.6,01.16,0.508
2017-04-11 03:42:00,1488E-3,5C000400,-0724,0836,12129,031.5,045.6,0.214,757.6,01.16,0.508
2017-04-11 03:43:00,1553E-3,5C000400,-0724,0837,12067,031.5,045.6,0.214,757.5,01.16,0.508
2017-04-11 03:44:00,1547E-3,5C000400,-0724,0837,11992,031.5,045.6,0.214,757.5,01.16,0.508
2017-04-11 03:45:00,1562E-3,5C000400,-0724,0836,12076,031.5,045.6,0.214,757.6,01.16,0.508
2017-04-11 03:46:00,1630E-3,5C000400,-0724,0836,12102,031.5,045.6,0.214,757.5,01.16,0.508
2017-04-11 03:47:00,1771E-3,5C000400,-0724,0836,12023,031.5,045.6,0.214,757.4,01.16,0.508
2017-04-11 03:48:00,1630E-3,5C000400,-0724,0837,12182,031.5,045.6,0.214,757.5,01.16,0.508
2017-04-11 03:49:00,1595E-3,5C000400,-0724,0837,12197,031.5,045.6,0.214,757.5,01.16,0.508
2017-04-11 03:50:00,1625E-3,5C000400,-0724,0837,12080,031.5,045.6,0.214,757.5,01.16,0.508
2017-04-11 03:51:00,1723E-3,5C000400,-0724,0837,12230,031.5,045.6,0.214,757.4,01.16,0.508
2017-04-11 03:52:00,1581E-3,5C000400,-0724,0836,12165,031.5,045.6,0.214,757.5,01.16,0.508
2017-04-11 03:53:00,1736E-3,5C000400,-0724,0836,12025,031.5,045.6,0.214,757.4,01.16,0.508
2017-04-11 03:54:00,1604E-3,5C000400,-0724,0837,11923,031.5,045.6,0.214,757.4,01.16,0.508
2017-04-11 03:55:00,1623E-3,5C000400,-0724,0837,12025,031.5,045.6,0.214,757.4,01.16,0.508
2017-04-11 03:56:00,1619E-3,5C000400,-0724,0837,11981,031.5,045.6,0.213,757.5,01.16,0.508
2017-04-11 03:57:00,1731E-3,5C000400,-0724,0837,11981,031.6,045.6,0.214,757.5,01.16,0.508
2017-04-11 03:58:00,1669E-3,5C000400,-0724,0837,12061,031.5,045.6,0.214,757.5,01.16,0.508
2017-04-11 03:59:00,1667E-3,5C000400,-0724,0836,12142,031.6,045.6,0.214,757.5,01.16,0.508
2017-04-11 04:00:00,1539E-3,5C000400,-0724,0837,12143,031.6,045.5,0.214,757.5,01.16,0.508
2017-04-11 04:01:00,1544E-3,5C000400,-0724,0837,12083,031.6,045.6,0.214,757.4,01.16,0.508
2017-04-11 04:02:00,1575E-3,5C000400,-0724,0837,12028,031.6,045.6,0.214,757.5,01.16,0.508
2017-04-11 04:03:00,1660E-3,5C000400,-0724,0836,12031,031.6,045.6,0.214,757.4,01.16,0.508
2017-04-11 04:04:00,1736E-3,5C000400,-0724,0837,12090,031.6,045.6,0.214,757.4,01.16,0.508
2017-04-11 04:05:00,1770E-3,5C000400,-0724,0837,12043,031.6,045.6,0.214,757.5,01.16,0.508
2017-04-11 04:06:00,1527E-3,5C000400,-0724,0836,11889,031.6,045.6,0.214,757.5,01.16,0.508
2017-04-11 04:07:00,1557E-3,5C000400,-0724,0837,12240,031.6,045.6,0.214,757.5,01.16,0.508
2017-04-11 04:08:00,1718E-3,5C000400,-0724,0836,12113,031.6,045.6,0.214,757.5,01.16,0.508
2017-04-11 04:09:00,1672E-3,5C000400,-0724,0836,12036,031.6,045.6,0.213,757.5,01.16,0.508
2017-04-11 04:10:00,1599E-3,5C000400,-0724,0836,12052,031.6,045.6,0.214,757.5,01.16,0.508
2017-04-11 04:11:00,1610E-3,5C000400,-0724,0837,12094,031.6,045.6,0.214,757.5,01.16,0.508
2017-04-11 04:12:00,1512E-3,5C000400,-0724,0836,12163,031.6,045.6,0.214,757.5,01.16,0.508
2017-04-11 04:13:00,1683E-3,5C000400,-0724,0837,12011,031.6,045.6,0.213,757.5,01.16,0.508
2017-04-11 04:14:00,1596E-3,5C000400,-0724,0837,12126,031.7,045.6,0.214,757.4,01.16,0.508
2017-04-11 04:15:00,1577E-3,5C000400,-0724,0837,12029,031.7,045.6,0.214,757.5,01.16,0.508
2017-04-11 04:16:00,1547E-3,5C000400,-0724,0836,12043,031.6,045.6,0.214,757.5,01.16,0.508
2017-04-11 04:17:00,1651E-3,5C000400,-0724,0836,12181,031.7,045.6,0.213,757.5,01.16,0.508
2017-04-11 04:18:00,1679E-3,5C000400,-0724,0837,11944,031.7,045.5,0.214,757.5,01.16,0.508
2017-04-11 04:19:00,1626E-3,5C000400,-0724,0837,11983,031.7,045.6,0.214,757.5,01.16,0.508
2017-04-11 04:20:00,1606E-3,5C000400,-0724,0837,12118,031.7,045.6,0.214,757.6,01.16,0.508